GFSNGP_con_mlcape_000.txt.gz
CAPE
0 10 45 53 27 0 0 0 3 24 24 33 0 0 24 806 2731 2636 2451 2233 1880 1790 1679 1489 1394 1017 1334 1305 588 758 454 781 430 170 306 173 450 328 244 153 59 0 0 0
0 5 12 27 40 14 0 0 5 18 144 13 0 0 0 200 2169 2247 2075 1716 1792 1899 1907 1730 1590 1242 1304 1233 1131 752 386 716 310 137 142 128 281 134 148 146 68 32 13 5
6 2 2 49 46 41 2 0 2 135 213 11 7 20 60 1855 1796 1779 1707 1573 1262 1208 1110 1036 868 877 1050 1312 1411 1259 563 378 154 122 187 93 94 130 151 118 71 27 0 0
43 30 23 41 40 48 74 20 8 823 209 20 0 67 461 2138 1801 1581 1191 871 786 619 588 381 226 231 243 325 500 1237 833 395 141 60 80 176 111 96 88 19 0 0 0 0
41 48 6 190 42 1 135 8 55 474 714 306 525 708 1539 1561 1344 879 591 390 147 26 4 2 2 1 2 49 116 459 1033 514 154 93 70 48 92 61 10 0 0 0 0 0
9 40 0 10 123 212 215 35 704 688 1216 1147 956 774 766 578 392 172 89 42 1 2 2 1 3 4 0 1 0 83 100 145 2 0 0 2 0 0 0 0 0 0 0 0
0 5 20 283 315 190 0 372 805 911 995 1257 873 891 450 209 130 30 13 1 2 0 2 3 4 4 1 3 2 5 5 3 1 3 3 5 0 0 0 0 0 1 3 1
19 5 0 242 69 24 915 897 1138 1025 805 588 211 175 52 55 10 2 2 2 2 2 3 5 6 3 4 5 4 5 6 6 7 5 5 1 0 0 0 0 0 1 0 0
353 210 567 1177 1143 1146 940 878 1189 952 468 216 35 0 0 0 0 1 3 3 4 2 3 4 4 4 4 4 3 4 6 7 7 5 5 3 3 3 0 0 0 0 1 2
173 193 532 574 734 668 636 671 695 483 280 87 18 0 0 1 4 1 1 3 3 4 3 3 4 4 4 4 3 3 5 4 3 4 2 2 1 2 0 1 1 0 0 0
44 153 0 218 610 718 585 494 351 157 114 36 0 0 0 0 1 1 3 3 3 3 3 2 1 2 2 2 1 2 1 0 0 0 0 0 0 0 0 0 0 0 0 0
17 163 88 231 928 685 490 320 211 41 0 0 0 1 2 3 1 2 3 3 3 2 2 1 0 0 1 1 0 0 0 0 0 0 0 0 0 0 0 0 0 0 0 0
87 257 303 282 208 119 172 133 108 71 7 0 1 3 2 4 4 2 2 2 2 1 2 2 1 0 0 0 0 0 0 0 0 0 0 0 0 0 0 0 0 0 0 0
52 0 21 0 65 255 162 125 133 80 36 4 1 0 1 1 2 1 2 2 1 4 1 0 1 1 0 0 0 0 0 0 0 0 0 0 0 0 0 0 0 0 0 0
0 11 22 0 444 372 361 215 39 29 44 3 4 7 6 4 1 2 0 2 0 0 0 0 0 0 0 0 0 0 0 0 0 0 0 0 0 0 0 0 0 0 0 0
0 0 0 0 149 485 456 447 140 29 56 10 7 3 1 0 0 0 0 0 0 0 0 0 0 0 0 0 0 0 0 0 0 0 0 0 0 0 0 0 0 0 0 0
0 11 154 383 273 544 392 311 142 28 11 16 16 8 5 1 0 0 0 0 0 0 11 10 8 17 7 12 2 0 0 0 0 2 1 0 0 0 0 0 0 0 0 0
16 57 258 474 664 495 360 258 162 31 4 9 6 0 0 0 0 0 0 0 4 32 16 9 4 6 12 5 6 5 1 1 1 0 0 0 0 0 0 0 1 0 0 0
48 89 158 424 805 606 401 253 91 44 4 0 0 0 0 0 0 0 0 5 11 26 19 22 4 18 21 0 11 5 12 4 5 1 0 0 0 0 0 1 1 0 0 0
66 29 115 781 908 664 368 115 64 4 0 0 0 0 0 0 0 0 13 47 36 36 85 52 74 29 69 13 0 3 11 0 0 11 0 0 0 0 0 0 0 0 0 0
40 180 727 823 723 524 301 85 0 0 0 0 0 0 0 0 0 14 23 33 36 36 23 27 59 32 10 0 0 0 0 2 0 10 3 1 1 1 2 0 0 0 0 0
519 751 708 585 290 107 0 0 0 0 0 0 0 6 15 20 18 28 30 22 1 0 0 0 0 0 0 0 0 0 0 0 0 0 2 0 4 0 0 0 0 0 0 0
681 409 175 26 0 0 0 0 0 0 0 10 20 13 9 18 31 28 16 0 0 0 0 0 0 0 0 0 0 0 0 0 0 0 0 0 0 0 0 0 0 0 0 0
56 10 3 2 1 0 1 1 1 1 3 1 0 0 1 22 1 0 0 0 0 0 0 0 0 0 0 0 0 0 0 0 0 0 0 0 2 1 0 0 0 0 0 0
3 1 0 1 1 1 0 0 0 0 0 0 0 7 13 12 1 0 0 0 0 0 0 0 0 0 0 0 0 0 0 0 0 0 0 0 0 0 0 0 0 0 0 0
0 0 1 1 1 0 0 0 0 0 0 0 13 1 0 0 0 0 0 0 0 0 0 0 0 0 0 0 0 0 0 0 0 0 0 0 0 0 0 0 0 0 0 0
5 3 1 1 1 0 0 0 0 0 14 27 6 0 0 0 0 0 0 0 0 0 0 0 0 0 0 0 0 0 0 0 0 0 0 0 0 0 0 0 0 0 0 0

GFSNGP_con_mlcape_003.txt.gz
CAPE
7 68 1 4 1 11 18 0 0 3 79 122 219 68 37 320 0 258 1516 1363 1403 1460 1568 1428 1268 1417 1047 856 487 506 790 684 236 111 186 346 211 140 44 16 0 2 5 0
0 41 72 7 14 65 51 0 0 7 73 153 83 266 488 95 3 4 1666 1670 1475 1444 1461 1242 1217 1146 1340 1380 711 657 517 771 194 112 63 169 99 103 96 75 1 0 0 0
0 17 67 2 35 95 85 31 37 4 18 4 3 34 491 597 853 2009 1377 1032 1026 814 601 334 265 235 393 406 567 919 431 638 252 83 54 75 71 59 39 0 0 0 0 0
0 68 2 44 5 14 13 121 142 77 9 0 10 113 508 1640 1494 1274 871 543 210 91 48 0 0 0 2 45 175 537 861 419 86 83 39 41 30 4 0 0 0 0 0 0
24 5 52 44 162 36 144 644 220 109 0 28 5 1035 1240 1043 779 383 97 13 2 0 0 0 0 0 0 0 18 30 583 465 4 40 30 17 0 0 0 0 0 0 0 0
61 20 24 45 62 7 105 339 584 140 43 0 496 594 865 308 86 0 0 0 0 0 0 1 1 0 0 0 0 0 0 0 0 0 0 0 0 0 0 0 0 0 0 0
0 4 0 35 55 80 75 334 924 339 177 425 631 779 230 24 0 0 0 0 0 0 2 2 2 2 0 3 1 5 4 3 2 2 2 2 2 0 0 0 0 0 0 0
0 3 0 780 344 211 1222 1105 1031 1039 698 570 491 380 147 19 1 0 0 0 2 1 3 5 4 1 2 2 3 2 4 6 6 5 5 4 0 0 0 0 0 0 0 0
104 265 784 924 1092 1084 1332 974 869 948 528 286 35 164 22 0 0 0 0 3 2 1 4 5 4 4 3 5 3 4 4 5 5 4 3 4 4 0 0 0 0 0 0 0
148 136 107 316 393 416 871 834 532 397 367 272 231 38 0 0 0 0 2 4 1 2 4 5 4 5 4 4 3 4 4 4 3 3 3 2 1 1 0 0 0 0 0 0
21 23 7 2 120 43 0 290 324 277 253 138 36 0 0 0 0 0 3 2 1 2 2 3 2 2 2 1 0 0 0 0 0 0 0 0 0 0 0 0 0 0 0 0
9 73 0 50 2 115 80 65 113 143 73 6 4 0 0 0 0 1 0 1 2 2 2 2 1 0 0 0 0 0 0 0 0 0 0 0 0 0 0 0 0 0 0 0
2 67 284 93 121 62 7 40 72 71 22 0 0 0 0 0 1 0 2 2 2 1 3 1 1 0 0 0 0 0 0 0 0 0 0 0 0 0 0 0 0 0 0 0
0 9 4 16 1 84 80 98 59 34 11 0 0 0 0 0 1 1 2 0 2 3 1 1 1 0 0 0 0 0 0 0 0 0 0 0 0 0 0 0 0 0 0 0
0 0 66 40 218 255 151 120 68 29 1 0 1 1 0 1 2 1 0 3 2 0 0 0 0 0 0 0 0 0 0 0 0 0 0 0 0 0 0 0 0 0 0 0
0 0 27 3 38 300 125 91 52 40 14 5 2 1 1 1 0 0 1 0 0 0 0 0 0 0 0 0 0 0 0 0 0 0 0 0 0 0 0 0 0 0 0 0
0 10 0 0 32 84 134 137 42 42 23 3 0 0 1 0 0 0 0 0 0 0 0 0 0 0 0 0 0 0 0 0 0 0 0 0 0 0 0 0 0 0 0 0
0 24 121 9 0 0 0 41 51 16 21 42 0 0 0 0 0 0 0 0 0 3 13 5 9 9 17 22 6 0 0 0 0 0 0 0 0 0 0 0 0 0 0 0
0 10 244 145 33 15 256 182 62 27 40 6 0 0 0 0 0 0 0 0 2 21 31 32 42 12 0 1 4 2 1 1 1 0 0 0 0 0 0 0 0 0 0 0
0 4 6 417 271 203 250 121 54 3 1 0 0 0 0 0 0 0 0 0 17 28 38 24 6 14 12 0 0 0 4 0 0 0 0 0 0 0 0 0 0 0 0 0
7 3 24 507 397 275 231 68 0 0 0 0 0 0 0 0 0 12 11 1 9 17 36 28 17 8 0 0 0 0 0 0 0 0 0 0 0 0 0 0 0 0 0 0
5 348 577 413 376 293 86 6 0 0 0 0 0 0 0 9 15 5 10 5 3 0 0 0 0 0 0 0 0 0 0 0 0 0 0 0 0 0 0 0 0 0 0 0
555 425 244 61 16 1 0 0 0 0 0 0 0 0 9 18 2 3 5 0 0 0 0 0 0 0 0 0 0 0 0 0 0 0 0 0 1 0 0 0 0 0 0 0
58 8 0 0 0 0 0 0 0 0 0 1 2 11 3 0 0 0 0 0 0 0 0 0 0 0 0 0 0 0 0 0 0 0 0 0 0 0 0 0 0 0 0 0
0 1 0 1 0 1 0 0 0 0 1 2 0 1 2 21 14 1 0 0 0 0 0 0 0 0 0 0 0 0 0 0 0 0 0 0 0 0 0 0 0 0 0 0
1 2 2 3 2 2 2 0 0 0 8 11 17 20 20 3 0 0 0 0 0 0 0 0 0 0 0 0 0 0 0 0 0 0 0 0 0 0 0 0 0 0 0 0
2 2 2 1 0 0 0 0 2 2 0 5 6 1 1 0 0 0 0 0 0 0 0 0 0 0 0 0 0 0 0 0 0 0 0 0 0 0 0 0 0 0 0 0

GFSNGP_con_mlcape_006.txt.gz
CAPE
0 0 4 14 8 2 0 0 0 0 4 125 130 61 62 47 0 200 1 0 451 751 1114 1083 1172 896 702 139 375 546 751 313 124 61 87 158 57 2 0 3 7 0 0 0
0 0 0 9 2 3 2 46 0 0 10 93 76 18 41 8 12 36 1 164 698 693 948 815 703 571 655 578 449 549 772 396 99 135 195 85 61 20 0 0 0 0 0 0
0 0 0 0 6 48 31 69 13 0 12 212 114 197 131 5 0 0 0 524 517 373 201 68 0 0 107 213 276 404 581 440 159 104 61 13 19 0 0 0 0 0 0 0
0 0 0 0 46 20 155 441 143 1 47 246 139 150 283 47 4 0 28 365 191 39 0 0 0 0 0 0 20 260 356 384 91 33 11 4 0 0 0 0 0 0 0 0
4 0 0 0 20 97 145 454 48 15 24 52 452 671 390 139 202 163 93 12 3 0 0 0 0 0 0 0 0 1 235 226 28 0 0 0 0 0 0 0 0 0 0 0
13 1 0 2 90 112 60 95 119 96 648 559 1017 453 601 92 53 17 0 0 0 0 0 0 0 0 0 0 0 0 0 0 7 0 0 0 0 0 0 0 0 0 0 0
0 0 0 391 514 241 0 0 586 72 266 707 461 358 272 20 4 0 0 0 0 0 0 0 0 0 0 0 0 3 3 1 2 1 0 0 0 0 0 0 0 0 0 0
0 0 0 412 388 267 772 1030 650 116 175 599 488 220 110 12 0 0 0 0 0 0 0 3 1 1 1 1 4 3 2 2 3 3 5 3 0 1 0 0 0 0 0 0
35 31 113 231 559 843 757 848 698 341 347 373 203 31 0 0 0 1 1 1 1 1 2 4 4 3 3 4 3 2 2 4 4 3 3 3 3 4 3 0 0 0 0 0
60 11 25 9 340 449 400 434 582 362 323 128 103 0 0 0 0 0 0 0 0 0 0 3 4 3 3 3 2 4 4 3 4 2 2 3 2 2 1 0 0 0 0 0
31 0 24 52 17 0 0 1 58 186 119 16 1 0 0 0 0 0 0 0 0 0 1 4 3 3 1 0 0 0 0 0 0 0 0 0 0 0 0 0 0 0 0 0
1 38 15 19 121 48 0 24 58 60 54 4 6 0 0 0 0 0 2 0 0 1 2 2 1 0 0 0 0 0 0 0 0 0 0 0 0 0 0 0 0 0 0 0
40 132 92 38 3 63 88 80 77 111 36 9 0 0 0 0 0 0 1 0 1 1 0 0 0 0 0 0 0 0 0 0 0 0 0 0 0 0 0 0 0 0 0 0
6 15 1 64 97 94 63 23 7 0 0 0 0 0 0 0 0 0 0 0 0 0 0 0 0 0 0 0 0 0 0 0 0 0 0 0 0 0 0 0 0 0 0 0
0 1 36 65 107 137 44 25 9 1 0 0 0 0 0 0 0 0 0 0 0 0 0 0 0 0 0 0 0 0 0 0 0 0 0 0 0 0 0 0 0 0 0 0
0 0 3 91 173 143 62 30 7 0 0 0 0 0 0 0 0 0 1 0 0 0 0 0 0 0 0 0 0 0 0 0 0 0 0 0 0 0 0 0 0 0 0 0
0 0 0 0 14 180 107 52 34 2 0 0 0 0 0 2 0 0 0 0 0 0 0 0 0 0 0 0 0 0 0 0 0 0 0 0 0 0 0 0 0 0 0 0
6 9 15 0 11 89 139 100 32 28 17 7 1 0 0 0 0 0 0 0 0 0 0 0 0 0 0 0 0 0 0 0 0 0 0 0 0 0 0 0 0 0 0 0
7 25 15 55 21 90 165 78 51 51 12 2 0 0 0 0 0 0 0 0 0 0 0 0 1 0 0 1 0 0 0 0 0 0 0 0 0 0 0 0 0 0 0 0
28 32 77 141 29 34 106 86 57 44 47 12 1 0 0 0 0 0 0 0 0 17 17 29 34 12 0 0 0 0 0 0 0 0 0 0 0 0 0 0 0 0 0 0
32 15 69 184 194 191 102 123 80 35 1 0 0 0 0 0 0 0 0 0 6 38 41 33 19 9 0 0 0 0 0 0 0 0 0 0 0 0 0 0 0 0 0 0
35 1 94 240 155 75 60 31 4 0 0 0 0 0 0 0 0 0 5 13 3 8 0 0 0 0 0 0 0 0 0 0 0 0 0 0 0 0 0 0 0 0 0 0
104 38 133 165 50 8 0 0 0 0 0 0 0 0 0 0 0 5 2 0 0 0 0 0 0 0 0 0 0 0 0 0 0 0 0 0 0 0 0 0 0 0 0 0
3 1 0 0 0 0 0 0 0 0 0 0 0 0 0 0 0 0 0 0 0 0 0 0 0 0 0 0 0 0 0 0 0 0 0 0 0 0 0 0 0 0 0 0
0 0 0 0 0 1 0 0 0 0 0 1 1 0 1 0 0 0 0 0 0 0 0 0 0 0 0 0 0 0 0 0 0 0 0 0 0 0 0 0 0 0 0 0
0 1 2 1 1 0 1 1 1 2 5 6 9 4 1 4 3 2 0 0 0 0 0 0 0 0 0 0 0 0 0 0 0 0 0 0 0 0 0 0 0 0 0 0
3 2 2 2 2 1 0 0 0 1 3 11 8 23 24 7 0 0 0 0 0 0 0 0 0 0 0 0 0 0 0 0 0 0 0 0 0 0 0 0 0 0 0 0

GFSNGP_con_mlcape_009.txt.gz
CAPE
0 0 0 8 12 2 0 0 0 0 0 0 40 54 149 254 924 1310 793 596 495 558 491 406 477 285 123 3 105 339 580 268 167 56 57 54 4 0 0 0 0 0 0 0
0 0 0 2 14 22 43 5 0 0 0 0 12 10 12 102 213 851 114 160 557 526 510 338 195 151 160 179 213 300 667 389 146 58 85 35 0 0 0 0 0 0 0 0
0 0 0 0 5 75 30 48 52 2 9 3 21 20 36 35 21 100 50 116 353 251 125 46 10 0 46 92 177 314 455 721 179 144 78 38 0 0 0 0 0 0 0 0
0 0 0 0 54 98 292 450 246 73 21 15 39 35 21 32 36 47 87 249 171 24 0 0 0 0 0 0 0 123 212 393 176 84 19 0 0 0 0 0 0 0 0 0
4 0 0 7 58 176 117 280 91 55 87 73 243 240 125 75 20 24 14 24 0 0 0 0 0 0 0 0 0 0 0 142 89 28 0 0 0 0 0 0 0 0 0 0
26 0 0 5 246 586 101 58 159 129 362 346 357 183 315 38 12 0 0 0 0 0 0 0 0 0 0 0 0 0 0 0 16 4 0 0 0 0 0 0 0 0 0 0
0 0 0 229 392 396 24 4 132 494 496 453 268 264 113 0 0 0 1 2 2 1 0 0 0 1 0 0 0 2 3 1 1 1 0 2 0 0 0 0 0 0 0 0
0 0 0 381 334 158 709 825 112 439 462 460 307 8 3 3 1 2 2 3 2 0 0 2 1 1 0 0 3 2 2 2 6 5 4 3 0 0 0 0 0 0 0 0
0 0 251 337 725 796 881 758 317 316 499 423 125 2 2 3 3 3 1 0 0 0 2 3 3 2 2 4 3 3 2 3 4 3 3 4 4 4 1 0 0 0 0 0
1 43 68 400 441 485 740 754 427 231 237 210 89 0 2 2 3 2 0 0 0 0 0 3 3 3 4 2 2 1 1 2 1 0 0 1 0 1 2 0 0 0 0 1
48 40 61 259 122 148 485 538 456 263 223 101 39 9 1 0 0 1 0 0 0 0 2 3 3 1 0 0 0 0 1 1 1 1 1 0 0 0 0 0 0 0 0 0
50 57 15 103 40 9 8 42 83 11 0 0 0 0 0 1 0 0 0 0 0 2 2 3 0 0 0 0 0 0 0 0 0 0 0 0 0 0 0 0 0 0 0 0
82 144 113 130 138 89 97 170 90 48 2 0 0 0 0 0 0 0 0 0 1 0 0 0 0 0 0 0 0 0 0 0 0 0 0 0 0 0 0 0 0 0 0 0
155 138 75 90 8 204 159 71 32 1 0 0 0 0 0 0 0 0 0 0 0 0 0 0 0 0 0 0 0 0 0 0 0 0 0 0 0 0 0 0 0 0 0 0
119 67 16 18 71 209 78 26 22 0 0 0 0 0 0 0 0 0 0 0 0 0 0 0 0 0 0 0 0 0 0 0 0 0 0 0 0 0 0 0 0 0 0 0
23 20 31 112 166 188 99 46 37 6 0 0 0 0 0 0 0 0 0 0 0 0 0 0 0 0 0 0 0 0 0 0 0 0 0 0 0 0 0 0 0 0 0 0
0 0 0 2 79 142 102 84 60 12 0 0 0 0 0 0 0 0 0 0 0 0 0 0 0 0 0 0 0 0 0 0 0 0 0 0 0 0 0 0 0 0 0 0
0 0 0 0 0 13 79 58 34 21 0 0 0 0 0 0 0 0 0 0 0 0 0 0 0 0 0 0 0 0 0 0 0 0 0 0 0 0 0 0 0 0 0 0
0 0 0 7 0 0 32 39 36 3 0 0 0 0 0 0 0 0 0 0 0 0 0 0 0 0 0 0 0 0 0 0 0 0 0 0 0 0 0 0 0 0 0 0
15 0 0 13 3 58 95 62 23 21 0 0 0 0 0 0 0 0 0 0 0 0 0 0 0 0 0 0 0 0 2 0 0 0 0 0 0 0 0 0 0 0 0 0
60 2 15 5 42 151 154 97 54 27 6 0 0 0 0 0 0 0 0 0 0 3 28 22 6 5 0 0 0 0 0 0 0 0 0 0 0 0 0 0 0 0 0 0
90 24 53 77 86 60 46 28 27 8 2 1 0 0 0 0 0 0 0 0 0 1 4 0 0 0 0 0 0 0 0 0 0 0 0 0 0 0 0 0 0 0 0 0
28 31 110 193 88 9 2 0 0 0 0 0 0 0 0 0 0 0 0 0 0 0 0 0 0 0 0 0 0 0 0 0 0 0 0 0 0 0 0 0 0 0 0 0
49 109 66 1 0 0 0 0 0 0 0 0 0 0 0 0 0 0 0 0 0 0 0 0 0 0 0 0 0 0 0 0 0 0 0 0 0 0 0 0 0 0 0 0
2 1 1 0 0 0 0 0 0 0 0 0 0 0 0 0 0 0 0 0 0 0 0 0 0 0 0 0 0 0 0 0 0 0 0 0 0 0 0 0 0 0 0 0
2 3 3 3 2 1 1 1 0 1 1 1 1 0 0 0 0 0 0 0 0 0 0 0 0 0 0 0 0 0 0 0 0 0 0 0 0 0 0 0 0 0 0 0
2 2 2 2 1 1 1 1 1 1 0 0 0 0 7 3 0 0 0 0 0 0 0 0 0 0 0 0 0 0 0 0 0 0 0 0 0 0 0 0 0 0 0 0

GFSNGP_con_mlcape_015.txt.gz
CAPE
0 0 0 0 14 0 0 23 11 112 13 187 84 30 376 1265 1673 1354 170 1309 362 147 249 853 826 643 561 737 627 569 537 551 643 278 241 117 8 3 3 2 4 3 3 3
0 0 0 0 0 2 0 0 0 7 63 44 0 116 394 892 1184 1581 1150 1083 829 488 626 799 674 571 421 400 500 461 502 583 769 457 216 85 0 3 2 1 2 3 3 3
0 2 12 0 0 5 90 126 141 78 255 85 211 170 456 966 1398 1502 1281 1024 871 638 427 302 270 210 204 118 124 267 352 578 651 417 272 55 1 2 2 2 3 1 3 3
0 0 0 0 0 94 200 454 317 615 403 253 188 208 374 862 1359 1329 1181 664 324 137 50 6 0 5 5 36 64 50 63 229 668 330 205 9 2 3 1 3 3 0 0 0
0 0 0 48 380 773 647 574 743 469 309 195 194 220 175 165 858 1033 758 257 87 7 2 0 0 0 0 0 0 1 2 0 75 120 39 2 3 2 1 2 4 2 1 0
0 0 0 13 629 891 834 75 405 488 449 269 158 103 204 17 36 38 3 0 0 4 2 0 0 1 0 0 0 0 0 0 0 45 19 2 4 4 3 1 2 0 0 0
0 97 26 0 641 658 60 32 569 497 531 392 192 207 75 0 0 0 0 0 1 0 0 0 0 1 0 0 1 2 2 2 0 0 1 2 4 3 2 0 2 0 0 0
0 0 4 215 664 255 484 1105 965 883 696 519 55 0 0 0 0 1 1 5 5 1 1 1 3 2 2 1 3 3 2 2 2 1 2 3 3 5 2 3 3 1 0 0
0 0 0 373 552 635 721 904 807 867 559 270 89 0 0 0 2 2 3 4 3 1 2 2 2 3 0 3 4 2 2 2 4 3 3 3 3 4 3 5 5 5 0 0
21 18 72 414 624 459 623 970 782 760 556 216 91 0 0 1 2 5 7 5 3 3 3 1 3 3 4 4 3 2 2 3 4 3 3 2 1 1 0 0 0 0 3 1
61 62 96 282 431 426 587 432 401 494 333 114 0 1 1 3 7 5 5 5 3 3 2 1 2 1 3 2 2 1 2 4 3 2 1 0 0 0 0 0 0 0 1 2
67 88 164 160 137 218 498 383 186 220 73 2 4 2 5 5 5 4 4 3 3 2 2 2 0 0 0 0 0 1 1 2 2 1 0 0 0 0 0 0 0 0 0 0
102 76 165 169 264 206 118 153 156 123 7 0 3 2 4 4 4 1 2 3 4 1 2 1 0 0 0 0 0 0 0 0 0 0 0 0 0 0 0 0 0 0 0 0
14 70 187 181 137 208 221 104 19 3 0 1 1 3 2 2 2 1 2 2 2 2 0 0 0 0 0 0 0 0 0 0 0 0 0 0 0 0 0 0 0 0 0 0
0 32 37 22 130 144 116 113 104 72 2 2 3 1 1 0 1 1 2 2 2 0 0 0 0 0 0 0 0 0 0 0 0 0 0 0 0 0 0 0 0 0 0 0
0 21 75 42 54 108 126 44 70 73 31 1 0 1 1 1 2 1 3 2 0 1 0 0 0 0 0 0 0 0 0 0 0 0 0 0 0 0 0 0 0 0 0 0
0 67 85 0 10 66 91 252 222 166 54 3 0 0 1 2 3 4 4 1 0 0 0 0 0 0 0 0 0 0 0 0 0 0 0 0 0 0 0 0 0 0 0 0
11 1 0 0 0 0 77 296 276 211 98 15 0 0 0 1 1 2 1 1 0 0 0 0 0 0 0 0 0 0 0 0 0 0 0 0 0 0 0 0 0 0 0 0
3 21 2 0 0 0 4 238 327 206 71 0 0 0 0 2 4 0 0 0 0 0 0 0 0 0 0 0 0 0 0 0 0 0 0 0 0 0 0 0 0 0 0 0
0 15 27 6 0 0 2 88 234 146 60 9 0 0 3 5 4 0 0 0 0 0 0 0 0 0 0 0 0 0 0 0 0 0 0 0 0 0 0 0 0 0 0 0
0 0 17 36 0 0 1 44 66 131 64 17 5 0 0 2 1 0 1 0 0 0 0 0 0 0 0 0 0 0 0 0 0 0 0 0 0 0 0 0 0 0 0 0
0 0 19 26 35 68 113 185 221 169 82 42 18 1 0 1 2 1 0 0 0 0 0 0 0 0 0 0 0 0 0 0 0 0 0 0 0 0 0 0 0 0 0 0
1 5 39 110 83 93 116 121 119 101 48 10 0 2 4 1 2 1 0 0 0 0 0 0 0 0 0 0 0 0 0 0 0 0 0 0 0 0 0 0 0 0 0 0
3 12 11 21 49 39 12 9 10 15 3 4 2 2 0 0 0 0 0 0 0 0 0 0 0 0 0 0 0 0 0 0 0 0 0 0 0 0 0 0 0 0 0 0
2 2 14 13 9 0 1 3 3 2 2 1 1 0 0 0 0 0 0 0 0 0 0 0 0 0 0 0 0 0 0 0 0 0 0 0 0 0 0 0 0 0 0 0
1 0 0 1 0 1 2 0 3 2 0 0 1 2 3 1 1 1 1 0 0 0 0 0 0 0 0 0 0 0 0 0 0 0 0 0 0 0 0 0 0 0 0 1
2 2 2 1 0 2 0 2 1 1 2 1 1 1 0 0 0 0 0 0 0 0 0 0 0 4 7 1 0 0 0 0 0 0 0 0 0 0 0 0 0 0 0 0

GFSNGP_con_mlcape_021.txt.gz
CAPE
3 0 0 5 8 40 0 3 28 127 18 0 498 637 1155 1489 2152 2340 2448 2092 2430 2317 1837 1279 1151 1377 1495 1273 1071 1084 1101 966 972 996 891 841 457 193 62 9 6 0 0 2
1 0 0 0 0 0 10 6 42 69 34 56 697 1012 844 1831 2300 2140 2100 2084 2450 1847 1280 1262 1598 1780 1492 1550 1442 1180 1032 970 1133 1146 1035 972 506 111 36 2 8 3 3 0
1 0 4 12 2 0 0 96 90 122 168 421 366 1093 1256 1691 2386 2115 1863 2045 2361 1454 1521 1857 1831 1893 1813 1731 1951 1676 1599 1404 1332 1324 1144 1061 614 172 0 3 2 4 5 5
0 1 2 60 79 88 14 5 25 78 125 134 1252 1252 1469 1783 2463 2367 1925 2250 1896 1403 1943 2182 2149 2009 1783 1432 1454 1437 1401 1192 1281 1424 1599 1258 790 135 1 1 1 0 3 0
0 0 0 49 67 65 9 4 29 17 212 854 1068 1378 1764 2285 2336 2522 2166 2311 1860 1876 1937 1599 1406 1279 1435 1343 1262 1104 700 180 127 318 833 776 603 27 3 7 1 0 3 3
0 0 1 35 182 354 184 205 247 637 654 704 818 33 1883 2378 3034 2983 2730 2383 1898 1244 841 531 274 482 774 545 251 23 0 1 2 3 48 300 221 2 1 0 5 3 2 1
0 0 0 7 1001 946 105 557 1861 1719 1486 1018 842 2052 2283 2262 2253 1919 1606 1121 857 660 563 223 44 67 80 6 0 2 1 1 3 2 0 1 0 0 0 5 2 3 0 0
0 0 0 315 593 364 1910 2066 2099 2020 1790 2262 2238 1487 1205 973 802 711 667 566 756 398 95 8 0 0 0 1 1 2 1 4 5 4 2 0 0 0 0 0 2 2 2 1
2 0 1075 1097 1848 1997 1968 2073 2307 2205 1866 2007 1310 953 259 184 304 436 579 526 353 80 3 2 2 1 2 3 2 2 3 7 6 5 3 1 0 1 0 0 2 3 0 0
7 35 566 972 1402 1729 1788 2004 2090 2047 1944 1489 1291 552 91 40 63 93 218 151 29 12 2 2 3 3 2 2 2 3 5 6 5 4 3 2 3 2 1 0 0 0 1 5
0 663 606 1071 1098 1251 1611 1778 1921 2009 1826 1664 1118 381 106 2 1 1 2 2 0 1 4 0 1 3 2 3 2 2 2 2 3 3 1 1 0 1 1 0 1 1 3 3
282 466 558 886 941 1059 1232 1416 1607 1465 1148 1130 653 252 31 7 3 3 5 3 4 2 3 4 2 3 2 3 1 2 1 0 0 0 0 0 1 0 0 0 0 0 0 0
33 213 509 639 769 827 968 999 1245 1140 871 610 219 34 5 3 6 5 5 4 3 3 2 2 5 4 3 4 4 0 0 0 0 0 0 0 0 0 0 0 0 0 0 0
24 47 365 265 365 481 766 811 700 653 323 184 117 31 5 6 2 3 0 2 4 4 6 3 4 4 2 6 3 1 0 0 0 0 0 0 0 0 0 0 0 0 0 0
19 55 64 179 193 316 395 644 649 593 283 187 140 60 3 3 4 2 1 3 0 2 1 0 2 1 2 1 0 0 0 0 0 0 0 0 0 0 0 0 0 0 0 0
26 38 66 84 131 134 123 331 478 368 330 190 180 114 89 27 1 1 0 2 2 3 1 1 2 0 0 0 0 0 0 0 0 0 0 0 0 0 0 0 0 0 0 0
62 51 24 172 157 27 43 41 340 346 374 373 326 146 51 10 7 6 3 1 0 0 2 3 0 0 0 0 0 0 0 0 0 0 0 0 0 0 0 0 0 0 0 0
88 93 91 147 126 88 1 0 1 408 348 315 137 26 28 8 7 7 7 6 4 1 0 0 0 0 0 0 0 0 0 0 0 0 0 0 0 0 0 0 0 0 0 0
53 73 93 106 168 181 74 23 30 288 465 198 96 47 32 32 63 11 2 0 2 0 0 0 0 0 0 0 0 0 0 0 0 3 4 0 4 8 9 9 5 3 0 0
66 89 97 123 151 170 177 52 77 24 160 399 270 266 139 125 54 4 1 1 1 0 0 0 0 0 0 0 0 0 3 6 13 10 4 11 18 24 10 2 8 4 8 7
96 203 231 249 267 255 268 191 60 332 332 503 483 319 207 84 15 11 4 4 2 0 0 0 0 1 1 0 0 1 11 12 11 12 1 3 3 14 0 6 4 2 3 0
141 249 340 377 492 526 478 236 113 268 346 683 445 287 128 22 18 4 4 0 0 0 0 0 6 0 0 0 12 6 15 4 1 4 7 6 0 3 3 0 5 10 27 26
15 225 388 478 588 637 637 536 499 727 729 592 408 232 143 61 86 57 14 6 0 0 2 0 0 0 0 5 0 0 0 0 0 0 0 0 0 4 2 4 0 0 4 13
12 211 336 847 1062 1046 1065 938 827 949 816 607 415 226 141 148 6 1 0 0 0 0 0 0 0 0 0 0 0 0 0 0 0 0 0 0 0 0 1 5 2 4 6 3
47 234 346 434 432 394 292 114 77 29 11 14 2 4 0 0 0 0 0 0 0 0 0 0 0 0 0 0 0 0 0 0 0 0 0 0 1 3 1 3 3 4 9 12
62 115 60 51 50 55 47 32 5 2 1 1 2 2 3 1 1 0 0 0 0 0 0 0 0 0 0 0 0 0 0 0 0 4 0 10 8 11 10 8 11 10 6 1
9 58 42 2 4 4 4 2 1 2 2 1 0 3 1 1 1 0 0 0 0 0 0 0 0 0 0 1 0 2 11 1 0 0 1 3 5 6 10 7 7 0 0 0

GFSNGP_con_mlcape_024.txt.gz
CAPE
0 0 0 29 82 32 2 0 3 26 130 17 27 40 31 447 2274 2511 2487 2248 2335 2200 2305 1777 1342 1335 1396 1071 1006 1262 1334 1052 1142 964 917 702 467 329 96 6 4 4 4 2
1 34 17 1 0 0 0 0 38 0 46 66 4 0 1 130 2283 2740 2685 2354 2507 2492 1977 1451 875 1643 1727 1410 1458 1501 1355 1163 1128 1062 911 663 537 257 85 1 2 4 2 0
27 39 28 8 0 0 0 0 0 11 146 158 30 0 83 1758 2521 2313 2506 2421 2608 2059 1438 1406 1583 2329 1705 2179 2223 1928 1874 1504 1265 1057 811 855 593 213 56 1 1 2 2 0
133 35 3 5 0 8 41 28 0 14 278 208 0 0 165 1309 2315 2295 2128 2549 2373 1649 1630 1994 2018 2350 2301 2053 1996 1851 1499 1221 937 979 1253 1051 589 189 46 0 0 0 2 0
29 4 3 0 0 7 46 54 775 757 556 263 205 0 1654 1862 2281 2388 2102 2887 1782 1868 2324 2089 2107 1856 1853 1735 1701 1077 496 278 79 47 317 1270 642 175 27 0 0 1 3 2
0 0 0 0 0 159 244 63 1425 663 113 0 0 0 1966 3431 3458 2984 2742 2233 2080 2149 1438 1252 1128 1370 1498 846 403 89 4 0 0 0 0 655 458 77 0 1 0 1 1 0
0 0 0 0 1 439 38 879 1880 1188 254 146 215 328 2871 3058 2826 2765 2362 1779 1529 1082 821 584 486 744 333 54 0 0 0 0 1 2 0 0 9 3 1 0 1 0 0 0
0 0 0 0 139 728 1833 2258 2035 1896 1632 2342 2124 2119 2265 1695 1653 1623 1372 1238 952 518 217 137 191 86 0 0 0 2 1 2 2 2 1 0 0 0 0 0 0 0 1 0
0 5 655 1462 2049 2150 2141 2184 2108 2083 1888 2069 1632 1297 952 802 855 1145 1135 899 326 27 1 0 3 0 3 2 1 1 3 3 3 3 2 1 0 0 0 0 0 0 0 0
202 361 1061 1386 1429 1384 1742 1917 1827 1743 1803 1579 1289 617 369 561 770 760 617 408 101 0 1 2 1 1 2 1 1 2 4 4 3 1 2 2 1 1 1 1 0 0 0 0
95 618 682 602 905 999 1308 1697 1954 1995 1941 1729 1076 624 401 280 338 213 136 34 7 0 0 1 0 0 0 1 1 2 2 1 1 2 2 0 1 1 1 0 0 0 1 1
305 463 524 729 750 825 951 989 1284 1516 1486 1396 973 628 192 51 24 13 19 0 0 2 2 1 3 2 2 0 0 0 0 0 0 0 0 0 0 0 0 0 0 0 0 0
40 17 42 490 435 605 526 801 1170 1180 1145 689 464 236 33 1 2 0 2 1 0 0 4 1 1 1 0 0 0 1 0 0 0 0 0 0 0 0 0 0 0 0 0 0
4 0 106 300 177 178 250 512 770 745 354 203 96 44 34 2 1 0 1 2 2 3 1 2 1 0 1 2 3 0 0 0 0 1 0 0 0 0 0 0 0 0 0 0
0 0 2 12 91 74 63 202 503 767 386 201 132 81 32 0 3 0 1 1 2 1 1 1 3 5 2 1 0 0 0 0 0 0 0 0 0 0 0 0 0 0 0 0
0 0 0 1 11 54 46 112 248 540 592 322 279 184 123 74 0 4 0 1 1 2 3 3 1 1 0 0 0 0 0 0 0 0 0 0 0 0 0 0 0 0 0 0
8 2 11 39 110 114 38 78 59 100 485 425 198 283 123 24 0 1 0 1 1 0 0 0 0 0 0 0 0 0 0 0 0 0 0 0 0 0 0 0 0 0 0 0
0 1 10 5 20 26 88 62 18 43 153 297 331 187 130 61 1 0 5 3 0 1 1 0 0 0 0 0 0 0 0 0 0 0 0 0 0 0 0 0 0 0 0 0
32 37 36 37 25 9 29 18 36 9 28 39 227 216 189 23 4 1 0 0 1 0 0 0 0 0 0 0 0 0 0 0 0 1 0 0 3 5 5 5 9 5 2 0
8 20 53 51 49 50 47 58 90 85 285 265 78 131 137 204 51 9 0 0 0 0 0 0 0 0 0 0 0 0 2 5 12 3 5 8 10 10 5 0 1 2 4 2
1 13 37 40 61 63 80 79 106 110 14 85 153 318 264 271 87 40 10 0 1 0 0 0 0 0 0 0 0 2 16 15 16 8 0 6 6 2 1 1 2 1 4 14
1 0 8 30 98 164 240 233 191 113 167 43 46 110 356 327 134 8 8 4 0 0 0 0 0 0 0 0 0 0 2 0 0 0 0 0 1 0 1 2 0 0 2 14
8 6 3 97 265 338 351 318 378 187 58 266 360 495 361 176 40 1 7 0 0 0 0 0 0 0 0 0 0 0 0 0 0 0 0 0 0 0 0 0 0 0 1 0
8 0 3 158 394 448 419 96 427 458 591 714 623 432 156 0 0 0 0 0 0 0 0 0 0 0 0 0 0 0 0 0 0 0 0 0 0 0 2 0 0 0 3 2
7 17 143 485 499 284 56 86 44 61 64 33 4 0 0 0 0 0 0 0 0 0 0 0 0 0 0 0 0 0 0 0 0 0 0 0 1 6 0 2 0 0 0 0
4 54 146 221 247 186 91 49 32 18 1 1 2 1 1 1 0 0 0 0 0 0 0 0 0 0 0 0 0 0 0 0 1 1 1 5 1 0 0 0 0 0 0 0
10 6 16 9 5 3 1 2 3 3 4 3 0 2 0 0 0 1 1 0 0 0 0 0 0 0 0 0 0 12 13 0 0 0 1 0 0 0 0 0 0 0 0 0

GFSNGP_con_mlcape_027.txt.gz
CAPE
17 2 0 0 0 38 31 21 0 0 115 186 70 0 15 0 28 669 1661 2149 1851 1805 1549 1521 1126 843 765 1263 1361 1203 1377 1016 984 930 639 431 258 80 0 0 0 3 0 0
0 0 0 0 0 0 0 0 0 26 156 84 8 0 0 0 12 282 1215 2223 2131 1813 1497 1254 1130 1232 1584 1341 1357 1306 1261 1170 1047 903 597 414 226 43 0 0 13 0 0 0
0 17 6 2 75 34 3 73 183 1 129 83 52 82 0 0 0 299 882 2398 2089 1735 1501 994 499 1443 1852 1765 1686 1616 1453 1304 1143 945 655 489 285 78 0 0 1 0 0 0
132 185 6 93 52 2 14 630 389 117 58 20 0 2 6 0 0 242 312 2521 1959 1808 1422 491 1322 2148 1999 1926 1760 1555 1136 675 535 571 719 646 343 105 0 0 0 1 0 0
6 8 17 42 63 49 57 551 460 352 91 20 130 4 2 21 618 445 1451 2137 1809 1331 1372 2014 1986 1804 1765 1374 873 458 166 55 12 8 168 699 359 92 2 1 0 0 0 0
0 0 0 26 2 0 67 319 154 70 26 49 78 11 3 127 2580 2553 2262 1894 1845 1717 1588 1445 1361 865 705 287 186 50 0 0 0 0 0 381 315 70 0 0 0 0 0 0
0 0 0 0 0 5 0 141 220 52 5 21 15 15 395 1734 1972 1901 1657 1585 1276 1050 941 859 597 153 219 29 10 0 0 0 0 0 0 6 67 2 1 0 0 0 0 0
0 0 0 419 65 107 162 142 1343 695 131 753 27 257 1708 1865 1778 1619 1299 963 703 545 348 217 2 31 9 0 0 0 0 0 0 0 0 0 0 0 0 0 0 0 0 0
0 0 1786 1780 1889 1758 1643 1631 1724 1421 1771 1614 1425 1221 1071 1073 1259 1270 722 557 241 212 44 1 0 0 0 1 0 0 0 0 1 1 1 0 0 0 0 0 0 0 0 0
76 661 764 867 793 850 1393 1504 1360 1685 1460 1205 882 555 472 650 786 691 449 217 18 13 0 0 0 0 0 0 0 0 0 0 0 0 1 1 0 0 0 0 0 0 0 0
491 441 453 104 0 4 547 1105 1330 1199 1164 896 538 333 415 418 337 198 156 21 0 0 0 0 0 0 0 0 0 0 0 0 0 0 0 1 1 1 0 0 0 0 0 0
135 136 375 464 105 0 507 1154 1333 1187 993 870 591 375 223 166 64 27 24 0 0 0 0 1 1 0 0 0 0 0 0 0 0 0 0 0 0 0 0 0 0 0 0 0
22 6 5 116 280 104 513 935 1153 1009 690 384 340 138 35 0 0 1 0 0 0 0 0 1 0 1 0 1 0 0 0 0 0 0 0 0 0 0 0 0 0 0 0 0
0 0 24 108 31 15 47 925 752 554 353 207 150 60 1 0 0 0 0 0 0 0 0 1 0 0 0 0 0 0 0 0 0 0 0 0 0 0 0 0 0 0 0 0
1 0 0 0 55 35 0 37 406 488 280 171 96 59 53 0 0 0 0 0 1 1 1 0 0 0 0 0 0 0 0 0 0 0 0 0 0 0 0 0 0 0 0 0
0 0 0 0 0 1 22 190 147 310 476 314 209 101 45 0 0 0 0 0 0 1 1 1 2 0 0 0 0 0 0 0 0 0 0 0 0 0 0 0 0 0 0 0
0 0 0 0 0 0 10 0 13 1 206 327 410 292 205 5 0 0 0 1 3 1 0 0 0 0 0 0 0 0 0 0 0 0 0 0 0 0 0 0 0 0 0 0
1 0 0 0 0 0 0 0 8 44 23 55 269 138 77 3 3 0 0 2 0 0 0 0 0 0 0 0 0 0 0 0 0 0 0 0 0 0 0 0 0 0 0 0
0 0 0 0 0 1 13 2 4 48 126 106 275 177 117 67 22 4 2 0 2 4 0 0 0 0 0 0 0 0 0 0 0 0 0 0 0 2 2 2 4 0 0 0
0 0 0 0 0 0 5 37 26 50 178 83 88 75 79 63 18 13 9 19 0 0 0 0 0 0 0 0 0 0 0 0 0 0 2 3 3 11 3 0 0 0 0 0
0 0 0 0 0 0 14 93 141 114 124 186 137 78 22 51 53 54 22 0 9 0 0 0 0 0 0 0 0 0 0 0 0 0 0 0 0 0 0 0 0 0 0 0
1 0 0 0 0 0 51 160 93 102 208 254 166 79 38 102 26 63 24 0 0 0 0 0 0 0 0 0 0 0 0 0 0 0 0 0 0 0 0 0 0 0 0 0
0 0 0 0 0 0 59 146 114 80 334 155 56 42 89 75 55 43 8 0 0 0 0 0 0 0 0 0 0 0 0 0 0 0 0 0 0 0 0 0 0 0 0 0
1 4 5 1 0 28 166 199 0 0 22 46 186 14 56 14 0 0 0 0 0 0 0 0 0 0 0 0 0 0 0 0 0 0 0 0 0 0 0 0 0 0 0 0
2 2 2 6 88 277 213 83 33 0 0 0 1 0 0 0 0 0 0 0 0 0 0 0 0 0 0 0 0 0 0 0 0 0 0 0 0 0 0 0 0 0 0 0
7 16 37 124 113 90 51 26 0 0 0 1 2 4 2 0 0 0 0 0 0 0 0 0 0 0 0 0 0 0 0 0 0 0 0 0 0 0 0 0 0 0 0 0
5 3 1 1 4 4 0 1 1 3 4 3 1 2 2 2 0 0 0 0 0 0 0 0 0 0 0 0 0 0 0 0 0 0 0 0 0 0 0 0 0 0 0 0

GFSNGP_con_mlcape_030.txt.gz
CAPE
0 0 0 0 0 0 0 0 0 0 0 0 134 156 127 37 3 0 0 10 604 1013 1181 979 453 195 79 248 734 1123 1010 828 881 569 255 112 42 0 0 0 0 0 0 0
0 0 0 0 0 0 4 52 1 0 0 42 138 10 190 92 193 259 464 1302 996 1181 1142 1028 908 443 218 598 978 1178 1117 929 978 681 345 178 56 0 0 0 0 0 0 0
0 0 0 0 3 8 345 359 233 43 0 18 121 30 97 374 145 383 795 1590 1356 1456 1407 1165 915 843 862 1033 1200 1240 1282 1233 1035 775 472 172 65 0 0 0 0 0 0 0
0 4 0 10 62 512 433 417 201 89 12 23 135 65 188 242 49 35 203 1396 1453 1362 1158 945 1142 1655 1319 1333 1201 911 752 584 627 637 507 236 89 2 0 0 0 0 0 0
2 0 0 21 65 41 167 321 275 118 53 21 211 18 104 7 0 0 78 451 1576 1128 971 812 1461 1251 878 522 490 246 224 154 49 60 316 462 246 35 2 0 0 0 0 0
0 0 0 0 2 21 116 0 306 143 110 61 69 41 17 0 1087 428 169 1100 1631 1250 1122 1056 840 394 221 136 24 41 0 0 0 0 2 457 272 40 0 0 0 0 0 0
0 0 0 0 0 34 0 0 85 9 0 34 59 24 4 198 1588 1249 1196 1198 1043 948 833 551 309 318 39 0 13 0 0 0 0 0 0 116 171 16 0 0 0 0 0 0
0 0 0 886 659 48 63 391 131 2 0 7 22 14 885 1075 1304 1070 1019 864 529 506 269 37 17 33 0 0 0 0 0 0 0 0 0 0 20 1 0 0 0 0 0 0
0 0 935 664 754 949 472 702 475 51 3 97 46 112 1070 1093 1089 845 647 545 229 250 56 0 0 0 0 1 0 0 0 0 0 0 0 0 0 0 0 0 0 0 0 0
176 399 109 281 528 865 1034 1086 1123 598 94 111 561 418 792 858 722 638 330 217 0 0 0 0 0 0 0 0 0 0 0 0 0 0 0 0 0 0 0 0 0 0 0 0
195 187 150 1 57 39 580 284 10 967 746 781 752 560 633 719 685 504 236 47 7 0 0 0 0 0 0 0 0 0 0 0 0 0 0 0 0 0 0 0 0 0 0 0
79 128 236 157 0 20 590 968 942 747 626 617 453 385 461 417 291 216 77 0 0 0 0 0 1 0 0 0 0 0 0 0 0 0 0 0 0 0 0 0 0 0 0 0
3 9 58 174 96 88 411 747 627 548 623 499 428 337 251 224 131 35 1 0 0 0 0 0 0 1 0 0 0 0 0 0 0 0 0 0 0 0 0 0 0 0 0 0
0 0 0 1 6 36 472 563 608 480 413 305 243 195 138 71 17 4 0 0 0 0 0 0 1 1 1 1 0 0 0 0 0 0 0 0 0 0 0 0 0 0 0 0
0 0 0 0 0 0 123 338 237 169 346 246 171 131 93 40 11 4 0 0 0 0 0 1 0 0 0 0 0 0 0 0 0 0 0 0 0 0 0 0 0 0 0 0
0 0 0 0 0 0 10 144 149 259 317 318 226 147 98 45 18 0 0 0 0 0 0 0 0 0 1 0 0 0 0 0 0 0 0 0 0 0 0 0 0 0 0 0
0 0 0 0 0 0 0 0 0 24 127 194 189 213 124 55 0 0 0 0 0 1 1 0 0 0 0 0 0 0 0 0 0 0 0 0 0 0 0 0 0 0 0 0
0 0 3 0 0 0 0 0 0 0 4 43 162 215 174 106 13 0 0 0 3 4 1 0 0 0 0 0 0 0 0 0 0 0 0 0 0 0 0 0 0 0 0 0
0 4 0 0 0 0 5 17 19 14 44 79 82 48 94 25 6 0 0 0 4 4 0 0 0 0 0 0 0 0 0 0 0 0 0 0 0 0 0 0 0 0 0 0
0 0 0 0 0 0 0 1 25 43 64 165 129 90 55 37 10 5 1 1 1 0 0 0 0 0 0 0 0 0 0 0 0 0 0 0 0 0 0 0 0 0 0 0
0 0 0 0 0 0 0 0 0 11 34 178 218 98 61 88 52 20 20 8 0 0 0 0 0 0 0 0 0 0 0 0 0 0 0 0 0 0 0 0 0 0 0 0
0 0 0 0 0 0 0 0 0 3 11 46 161 109 50 87 52 43 14 21 9 0 0 0 0 0 0 0 0 0 0 0 0 0 0 0 0 0 0 0 0 0 0 0
0 0 0 0 0 0 0 0 0 0 18 40 157 14 3 58 49 48 24 0 0 0 0 0 0 0 0 0 0 0 0 0 0 0 0 0 0 0 0 0 0 0 0 0
2 1 2 3 4 3 0 0 0 0 0 57 50 31 31 42 1 1 0 0 0 0 0 0 0 0 0 0 0 0 0 0 0 0 0 0 0 0 0 0 0 0 0 0
12 1 0 0 0 0 0 0 0 0 0 0 0 0 0 0 0 0 0 0 0 0 0 0 0 0 0 0 0 0 0 0 0 0 0 0 0 0 0 0 0 0 0 0
16 0 13 14 4 3 0 0 0 0 0 0 1 1 3 0 0 0 0 0 0 0 0 0 0 0 0 0 0 0 0 0 0 0 0 0 0 0 0 0 0 0 0 0
4 3 4 1 0 0 0 1 1 1 2 1 2 2 4 1 0 0 0 0 0 0 0 0 0 0 0 0 0 0 0 0 0 0 0 0 0 0 0 0 0 0 0 0

GFSNGP_con_mlcape_033.txt.gz
CAPE
0 0 0 0 0 0 0 0 0 0 0 0 86 160 236 30 57 93 1 33 565 1191 1117 986 790 661 207 71 41 468 947 767 603 356 205 76 58 1 0 0 0 0 0 0
0 0 0 0 0 0 5 133 6 9 0 2 81 201 166 68 130 365 320 51 57 464 698 814 469 398 53 0 141 756 1152 886 697 437 193 133 53 0 0 0 0 0 0 0
0 0 0 0 13 45 215 231 116 9 3 110 138 203 84 48 70 41 87 376 227 5 160 401 95 13 67 0 210 935 1232 1049 885 600 361 196 68 4 0 0 0 0 0 0
0 0 0 8 391 306 331 300 110 41 44 28 15 1 10 91 212 150 153 209 939 12 306 677 35 196 82 162 460 965 1167 997 817 580 403 215 94 15 0 0 0 0 0 0
0 0 10 278 109 2 175 170 200 81 207 225 132 38 70 33 0 132 0 195 1152 665 749 823 624 397 329 516 719 616 466 212 143 267 447 252 164 36 0 0 0 0 0 0
0 0 0 0 3 186 14 0 341 91 59 172 157 43 64 135 920 816 1289 674 319 908 880 829 604 482 611 430 224 5 40 1 0 0 66 288 308 74 0 0 0 0 0 0
0 0 0 0 186 72 0 0 397 221 102 151 55 54 85 557 631 858 1002 889 777 660 543 378 180 183 196 36 0 0 0 0 0 0 0 120 194 75 0 0 0 0 0 0
0 0 0 684 860 12 25 506 300 63 10 43 62 298 657 645 709 927 790 645 420 415 275 94 8 6 0 0 0 0 0 0 0 0 0 12 116 2 0 0 0 0 0 0
0 0 698 801 911 817 311 722 469 203 9 30 115 316 786 967 916 787 707 602 219 269 74 0 0 0 0 1 1 1 0 0 0 0 0 0 0 0 0 0 0 0 0 0
56 287 606 746 1121 1289 1362 1239 1169 615 51 331 0 493 746 892 827 629 217 149 60 46 1 0 1 0 0 2 0 1 1 0 0 0 0 0 0 0 0 0 0 0 0 0
245 169 69 3 267 362 311 154 355 883 360 329 40 28 219 745 629 377 71 1 0 0 0 0 0 0 1 2 0 0 0 0 0 0 0 0 1 0 0 0 0 0 0 0
78 152 106 112 112 434 847 931 840 806 653 673 759 543 551 600 435 243 44 0 0 0 0 0 0 0 0 0 0 0 0 0 0 0 0 0 0 0 0 0 0 0 0 0
23 85 105 57 127 390 916 915 729 450 352 334 426 471 404 325 205 149 25 0 0 0 0 0 0 0 0 0 0 0 0 0 0 0 0 0 0 0 0 0 0 0 0 0
28 24 39 17 42 617 803 793 613 460 336 271 343 247 224 195 129 81 43 0 0 0 0 0 0 0 0 0 0 0 0 0 0 0 0 0 0 0 0 0 0 0 0 0
0 2 9 0 2 144 464 479 251 156 218 164 154 136 89 59 30 16 0 0 0 0 0 0 0 0 0 0 0 0 0 0 0 0 0 0 0 0 0 0 0 0 0 0
1 0 0 0 0 13 106 213 173 145 213 240 173 100 74 39 8 3 0 0 0 0 0 0 1 1 0 0 0 0 0 0 0 0 0 0 0 0 0 0 0 0 0 0
5 0 0 0 0 0 0 0 0 0 133 148 64 53 109 81 52 0 0 0 0 0 0 0 0 0 1 0 0 0 0 0 0 0 0 0 0 0 0 0 0 0 0 0
3 0 0 0 0 0 0 0 0 0 18 38 65 106 150 135 58 4 0 1 0 0 0 0 0 0 0 0 0 0 0 0 0 0 0 0 0 0 0 0 0 0 0 0
0 0 0 0 4 3 0 0 8 0 3 35 81 97 88 57 39 12 0 0 0 1 1 0 0 0 0 0 0 0 0 0 0 0 0 0 0 0 0 0 0 0 0 0
0 0 0 0 0 0 0 0 0 0 0 13 98 86 100 66 29 26 0 0 0 6 2 0 0 0 0 0 0 0 0 0 0 0 0 0 0 0 0 0 0 0 0 0
0 0 0 0 0 0 0 0 0 0 0 0 33 68 59 53 40 34 16 19 8 0 0 0 0 0 0 0 0 0 0 0 0 0 0 0 0 0 0 0 0 0 0 0
0 0 0 0 0 0 0 0 0 0 0 0 0 16 115 123 60 36 17 16 0 0 0 0 0 0 0 0 0 0 0 0 0 0 0 0 0 0 0 0 0 0 0 0
0 0 0 0 0 0 0 0 0 0 0 0 0 1 60 88 106 83 43 15 0 0 0 0 0 0 0 0 0 0 0 0 0 0 0 0 0 0 0 0 0 0 0 0
0 1 4 2 5 3 0 2 0 0 0 0 0 4 34 69 34 2 3 6 2 0 0 0 0 0 0 0 0 0 0 0 0 0 0 0 0 0 0 0 0 0 0 0
12 12 0 0 2 0 0 0 0 0 0 0 0 2 1 0 0 0 0 0 0 0 0 0 0 0 0 0 0 0 0 0 0 0 0 0 0 0 0 0 0 0 0 0
18 4 14 12 2 2 0 0 0 1 0 0 0 1 2 2 2 0 0 0 0 0 0 0 0 0 0 0 0 0 0 0 0 0 0 0 0 0 0 0 0 0 0 0
8 6 3 0 0 0 0 1 0 1 2 2 3 2 2 3 1 0 0 0 0 0 0 0 0 0 0 0 0 0 0 0 0 0 0 0 0 0 0 0 0 0 0 0

GFSNGP_con_mlcape_036.txt.gz
CAPE
0 0 0 0 0 0 0 0 0 0 0 0 0 11 32 114 0 91 70 262 818 1021 657 453 333 457 312 54 153 300 881 845 603 351 183 74 39 3 0 0 0 0 0 0
0 0 0 0 0 0 0 0 0 0 0 0 10 2 135 111 53 120 102 115 186 182 602 234 157 246 205 26 0 94 608 951 645 399 204 137 47 8 0 0 0 0 0 0
0 0 0 0 0 11 91 121 81 0 0 11 15 57 154 111 52 99 109 124 418 347 431 46 1 0 64 30 8 39 730 921 769 528 360 173 39 1 0 0 0 0 0 0
1 0 0 17 229 191 229 229 111 26 20 60 88 65 32 53 173 18 11 33 291 476 154 68 4 0 0 6 68 10 581 977 789 639 426 197 50 15 0 0 0 0 0 0
0 0 1 279 185 61 112 39 105 45 147 131 92 49 11 76 3 0 575 161 229 646 419 213 61 3 16 103 89 44 277 551 521 481 345 258 118 31 2 0 0 0 0 0
0 0 0 9 0 227 0 0 160 160 197 219 184 33 0 23 416 861 1013 590 622 638 874 591 197 54 71 112 71 91 20 64 62 126 226 289 155 43 0 0 0 0 0 0
0 0 0 0 101 219 0 0 26 263 71 128 58 9 55 586 698 619 417 498 525 596 533 253 143 253 277 122 91 0 0 0 0 0 2 59 124 14 0 0 0 0 0 0
0 0 0 245 835 13 6 401 455 344 48 41 58 510 579 666 696 680 462 318 236 249 172 56 38 65 27 5 1 0 0 0 0 0 0 6 23 0 0 0 0 0 0 0
0 0 344 561 791 690 370 594 372 155 40 80 213 693 796 776 752 551 415 392 175 224 90 0 0 1 7 0 0 0 0 0 0 0 0 0 0 0 0 0 0 0 0 0
109 107 593 629 728 1147 1158 1137 1225 376 37 447 90 716 885 795 732 591 431 280 78 64 35 0 0 0 1 2 1 1 0 0 0 0 0 0 0 0 0 0 0 0 0 0
245 329 343 294 368 284 197 413 842 1039 293 486 345 486 734 700 396 185 152 47 9 0 0 0 0 0 0 0 0 0 0 0 0 0 0 0 0 0 0 0 0 0 0 0
118 164 156 231 274 388 825 875 911 886 781 686 601 557 552 453 355 230 36 5 0 0 0 0 0 0 0 0 0 0 0 0 0 0 0 0 0 0 0 0 0 0 0 0
186 112 131 181 269 499 987 772 516 228 179 154 201 249 280 261 174 78 17 0 0 0 0 0 0 0 0 0 0 0 0 0 0 1 0 0 0 0 0 0 0 0 0 0
166 79 48 44 331 772 867 707 561 450 373 342 243 167 129 105 63 50 19 0 0 0 0 0 0 0 0 0 0 0 0 0 0 0 0 0 0 0 0 0 0 0 0 0
70 3 6 11 44 423 533 491 285 156 150 150 150 140 66 47 40 22 0 0 0 0 0 0 0 0 0 0 0 0 0 0 0 0 0 0 0 0 0 0 0 0 0 0
4 1 0 0 1 60 135 132 90 68 142 160 156 80 26 10 3 0 0 0 0 0 0 0 0 0 0 0 0 0 0 0 0 0 0 0 0 0 0 0 0 0 0 0
0 0 0 0 0 0 0 0 0 0 0 12 26 26 15 12 4 0 0 0 0 0 0 0 0 0 0 0 0 0 0 0 0 0 0 0 0 0 0 0 0 0 0 0
0 0 0 0 0 0 0 0 0 0 0 0 0 1 31 37 28 45 45 3 0 0 0 0 0 3 1 0 0 0 0 0 0 0 0 0 0 0 0 0 0 0 0 0
0 0 0 0 0 0 0 3 6 0 0 0 0 0 8 32 58 60 48 7 0 0 0 0 1 2 0 0 0 0 0 0 0 0 0 0 0 0 0 0 0 0 0 0
0 0 0 0 0 0 0 0 0 0 0 0 0 0 1 14 30 21 9 23 8 0 1 1 0 0 0 0 0 0 0 0 0 0 0 0 0 0 0 0 0 0 0 0
0 0 0 0 0 0 0 0 0 0 0 0 0 0 0 0 10 18 4 6 18 0 0 1 0 0 0 0 0 0 0 0 0 0 0 0 0 0 0 0 0 0 0 0
0 0 0 0 0 0 0 0 0 0 0 0 0 0 0 0 12 31 21 16 10 0 0 0 0 0 0 0 0 0 0 0 0 0 0 0 0 0 0 0 0 0 0 0
0 0 0 0 0 0 0 0 0 0 0 0 0 0 0 0 0 25 84 14 0 0 0 0 0 0 0 0 0 0 0 0 0 0 0 0 0 0 0 0 0 0 0 0
0 0 0 0 4 3 2 2 0 0 0 0 2 1 1 0 0 0 0 0 0 0 0 0 0 0 0 0 0 0 0 0 0 0 0 0 0 0 0 0 0 0 0 0
9 14 9 1 13 9 1 0 1 1 0 0 1 0 0 0 2 0 0 0 0 0 0 0 0 0 0 0 0 0 0 0 0 0 0 0 0 0 0 0 0 0 0 0
30 26 19 11 3 1 0 0 0 1 1 0 0 2 2 1 1 1 1 1 0 0 0 0 0 0 0 0 0 0 0 0 0 0 0 0 0 0 0 0 0 0 0 0
3 3 3 0 0 0 0 0 0 1 1 1 2 2 1 1 2 3 3 3 2 1 0 0 0 0 0 0 0 0 0 0 0 0 0 0 0 0 0 0 0 0 0 0

GFSNGP_con_mlcape_042.txt.gz
CAPE
0 2 2 96 40 0 50 108 142 66 66 376 369 484 674 1004 955 1008 1082 1959 1965 1891 1485 81 2 444 1458 1187 690 439 328 588 994 945 848 667 395 220 90 25 0 0 1 1
0 0 0 0 40 23 57 161 154 120 149 612 705 789 785 964 1140 960 992 879 1614 1987 1861 254 279 425 1300 1398 833 398 424 585 885 1202 1031 794 549 270 155 52 2 1 0 0
0 3 0 0 19 35 98 113 188 165 767 880 895 1159 1156 952 758 814 841 1108 1356 1575 1837 880 742 715 1197 1186 1058 503 649 799 1140 1264 1141 972 703 354 155 90 4 3 5 5
3 120 0 234 222 117 310 352 482 685 734 1001 1121 1010 1039 1121 897 816 1501 704 968 1711 1763 1266 726 1070 653 334 331 874 804 912 1514 1269 1208 885 745 487 253 98 2 0 0 6
157 80 344 483 692 561 505 393 661 726 950 880 872 926 869 1180 1409 1905 1582 1687 1841 2025 1722 1971 1289 909 557 85 67 442 729 799 1072 1326 1141 944 408 492 264 89 12 0 0 8
171 172 170 430 628 716 430 313 652 955 1143 1010 983 885 951 1414 1775 1300 1067 1203 1424 1798 1630 1134 1047 531 302 152 92 705 573 722 326 609 899 580 561 650 154 62 8 0 0 2
158 216 162 371 682 297 51 355 666 947 1282 1190 1128 1244 1405 1748 1574 975 815 839 1218 1825 1671 1374 1128 783 635 589 729 823 199 141 130 227 332 469 486 372 75 5 5 1 0 0
168 131 143 718 773 309 1074 1575 1334 1091 1098 1179 1321 1399 1571 1813 1653 1144 808 674 612 623 494 394 505 938 786 134 4 30 56 130 106 40 89 313 250 149 19 0 1 0 0 0
153 240 910 1234 1888 1848 2000 1890 1553 1219 1067 1226 1636 1688 1778 1815 1727 1277 980 829 793 700 531 172 161 207 479 68 15 8 3 2 1 1 1 34 120 3 1 1 1 0 0 0
89 558 1365 1754 1755 1623 1447 2094 1560 1009 1106 1370 1537 1543 1690 1544 1601 1256 1216 1137 1007 744 520 248 49 65 48 5 2 2 3 2 4 0 0 1 1 3 1 2 0 0 0 0
315 789 1039 1670 1608 1372 1601 1970 1886 1233 1280 1332 1380 1388 1569 1316 1451 1431 1316 928 786 538 350 53 19 4 3 3 3 5 5 5 4 3 3 0 0 2 3 1 0 0 1 0
315 1308 1404 1816 1459 1487 1787 1787 1513 1478 1490 1650 1715 1598 1527 1441 1388 1322 1173 903 680 543 407 98 48 7 2 3 2 3 3 5 4 4 3 5 3 1 0 0 0 0 0 0
687 1106 1245 1293 1277 1930 1304 1076 1633 1601 1185 1084 1061 1042 999 1022 1095 876 857 772 669 494 311 158 87 34 3 4 0 0 0 2 2 3 2 4 4 1 0 0 0 0 0 0
906 968 980 949 1226 1624 1613 1171 1052 1066 1016 931 912 883 843 790 703 765 651 548 471 362 245 142 79 51 7 6 4 4 2 0 2 0 2 1 1 1 0 0 0 0 0 0
708 417 297 894 1287 1054 1158 1001 744 585 615 650 753 709 579 556 504 459 473 465 363 239 170 118 57 24 2 2 6 3 4 1 3 0 3 3 2 4 14 12 10 6 0 0
230 530 228 316 684 787 651 394 111 51 2 18 112 120 223 272 316 330 384 354 236 80 107 107 57 7 6 2 1 4 5 1 2 4 0 0 0 0 0 0 0 0 0 0
117 326 241 254 237 192 90 19 0 0 0 0 0 0 0 0 0 38 245 241 163 172 102 61 60 42 5 4 0 2 7 0 0 0 0 0 0 0 0 0 0 0 0 0
92 119 96 96 70 39 13 2 0 0 0 0 0 0 0 0 0 5 36 10 22 62 88 112 76 52 20 9 0 3 2 0 0 0 0 0 0 0 0 0 0 0 0 0
0 1 10 16 15 15 11 4 0 0 0 0 0 1 17 32 43 84 106 111 70 45 47 73 96 1 20 10 1 3 9 0 0 0 0 0 0 0 0 0 0 0 0 0
0 0 0 0 0 0 0 0 0 0 0 0 0 0 0 0 5 32 66 113 138 89 147 124 135 79 29 39 1 4 12 0 0 0 0 0 0 0 2 0 9 12 20 11
0 0 0 0 0 0 0 0 0 0 0 0 0 0 0 0 0 0 0 0 8 86 290 135 224 212 149 48 1 3 5 9 5 1 5 0 0 0 0 4 10 9 4 1
0 0 0 0 0 0 0 0 0 0 0 1 4 7 8 9 4 2 0 0 0 82 101 190 268 282 185 25 54 3 1 0 0 0 0 2 0 1 2 13 25 8 0 0
0 0 0 0 1 4 5 8 8 8 10 14 11 10 6 2 3 3 3 0 5 133 214 224 234 116 47 44 102 44 8 0 0 0 0 3 0 4 4 3 0 0 0 0
0 0 2 5 13 21 24 27 11 0 0 0 1 2 3 3 2 5 4 1 0 0 0 196 297 33 0 35 2 0 0 0 0 0 0 1 3 0 0 0 0 0 0 0
12 25 31 42 28 11 23 5 3 13 10 2 6 1 2 2 3 1 2 7 0 0 1 0 0 0 0 0 0 0 0 0 0 7 11 1 0 0 0 0 0 0 0 0
40 25 17 17 7 5 5 6 12 8 8 1 0 4 3 2 0 1 1 1 1 1 1 2 3 1 0 0 0 0 0 0 0 0 0 0 0 0 0 0 0 0 0 0
9 2 18 5 3 3 2 2 3 8 5 4 8 3 1 1 1 1 1 1 2 2 1 1 1 0 1 1 0 0 0 0 0 0 0 0 0 0 0 0 0 0 0 1

GFSNGP_con_mlcape_045.txt.gz
CAPE
0 7 91 138 119 53 0 75 133 13 15 0 501 747 1024 1842 1951 1656 1587 1892 2523 2604 2637 2299 421 1178 1561 1107 695 162 865 890 957 1129 945 556 493 408 253 147 72 3 3 1
0 1 5 29 66 105 7 34 60 69 81 0 394 1043 1199 1442 1545 1524 1520 1587 2255 2459 2756 1723 564 1239 1629 1178 912 383 278 682 1182 1203 1174 961 751 501 346 182 100 44 18 17
0 1 1 2 6 138 109 91 204 188 781 786 1002 1336 1483 1539 1355 1294 1241 1375 1556 2198 2467 2035 896 1185 1641 1639 1190 935 747 870 1254 1283 1360 899 879 583 374 190 98 55 15 35
3 23 0 32 4 70 129 150 166 796 769 1213 1574 1533 1716 1692 1446 1317 1757 1297 1389 2311 2398 2035 1214 1418 1708 1718 1688 1190 882 938 1394 1564 1413 1157 896 804 506 270 119 5 20 12
37 31 54 262 190 221 184 146 143 660 939 1164 1309 1540 1636 1658 1930 2445 2298 2432 2395 2697 2162 2266 1314 1679 1183 1031 1286 890 576 865 1099 1570 1503 1450 1001 834 536 194 113 1 3 2
144 63 127 144 227 293 274 469 387 731 881 957 1163 634 1640 1898 2391 2112 1855 1865 2147 2606 2582 2435 2058 1611 1265 805 434 4 37 753 979 1146 1475 1813 995 977 667 331 171 8 2 4
175 166 298 415 501 777 491 682 685 848 871 823 1045 2257 2009 2492 1888 1543 1281 1443 2164 2562 2161 2241 1762 1381 1036 683 235 286 327 626 878 673 797 1187 1085 999 907 480 78 3 3 4
133 121 322 255 610 463 1146 1351 724 828 1058 1577 2013 1864 2121 2233 2002 1582 1365 1200 1522 1463 1449 1536 1910 1665 1347 1025 617 476 349 372 264 330 615 636 935 938 717 156 3 5 3 0
217 598 883 1703 2481 2072 2199 1610 1305 1265 1427 1680 1737 1772 2150 2301 1812 1483 1318 1174 986 1011 1099 895 935 1080 1264 454 151 184 110 124 106 63 101 269 571 431 136 1 0 2 7 4
234 558 1381 1411 1811 1908 2154 2076 1446 1431 1494 1676 1865 1909 2122 2208 1979 1727 1451 1447 1317 1179 1096 666 515 558 411 138 61 76 82 32 5 9 5 6 154 26 1 2 1 1 1 0
100 595 802 1517 1791 1827 2084 2358 1522 1526 1603 1824 1669 1794 1982 1978 1981 1837 1473 1318 1148 988 840 626 245 81 49 17 37 54 5 2 3 3 2 0 0 0 2 0 0 0 0 0
626 1409 1168 2198 2031 2099 1989 1840 1758 1760 1872 1987 1927 1952 1859 1668 1643 1519 1337 1089 961 827 682 513 313 135 29 21 30 22 22 6 4 1 1 2 1 0 0 0 0 0 0 0
940 1208 1577 1770 1919 2033 1695 1890 1867 1935 1889 1779 1510 1403 1300 1206 1228 813 1000 952 934 884 739 603 426 236 79 18 15 5 2 3 3 0 0 3 5 0 0 1 0 0 0 0
1212 1244 1220 1407 1705 2013 1503 1447 1457 1494 1417 1261 1170 1036 922 806 752 737 650 603 587 542 549 500 372 254 124 24 6 4 6 0 4 2 2 1 3 1 1 2 0 0 0 0
474 393 544 1429 1482 1419 1412 909 385 305 584 679 563 572 611 560 497 437 400 339 340 312 283 228 156 166 163 35 3 1 2 4 3 1 2 1 10 2 0 0 1 0 0 0
355 349 127 234 743 885 638 36 4 10 5 0 0 0 0 22 82 139 193 158 193 133 92 101 82 68 101 7 1 3 0 0 2 7 6 6 6 5 11 16 23 10 0 0
295 178 163 147 284 346 422 158 8 0 0 0 0 0 0 0 2 0 19 68 87 35 20 51 96 115 145 28 5 15 14 3 1 9 12 8 7 5 4 2 0 0 0 0
354 361 256 330 194 195 149 71 47 55 67 37 5 18 29 58 41 33 39 33 39 25 48 50 28 81 83 44 12 11 6 0 5 0 0 0 0 0 0 0 0 0 0 0
73 100 123 154 109 126 116 83 39 25 25 25 41 58 59 53 51 60 79 104 86 54 33 95 94 110 120 93 34 15 0 0 2 0 0 0 0 0 0 0 0 0 0 0
0 0 1 6 3 16 30 33 21 19 18 8 9 3 9 11 12 4 15 19 32 48 73 71 100 119 193 158 39 0 10 0 0 0 0 0 0 0 0 0 1 2 2 0
4 1 12 10 12 13 21 22 26 22 15 0 0 0 0 0 1 0 0 0 0 0 37 135 192 31 119 189 116 37 44 2 2 0 0 0 0 0 4 1 6 14 2 5
9 13 15 12 18 29 32 25 15 1 2 3 5 6 7 7 8 7 8 7 2 0 0 0 15 142 191 233 213 139 57 69 7 0 0 1 2 2 0 0 1 0 15 22
5 4 6 14 13 6 3 10 9 6 10 12 9 4 4 5 9 4 3 1 11 4 0 8 49 33 189 223 178 188 164 147 54 7 0 0 0 0 1 7 0 0 0 0
4 5 2 0 15 23 30 29 14 18 9 6 4 10 11 5 4 6 7 3 0 0 2 0 0 0 0 153 164 232 55 80 79 0 0 0 2 0 0 0 0 0 0 0
76 60 70 47 27 20 27 21 19 22 9 3 3 1 3 0 5 4 3 4 1 2 4 0 0 0 55 330 327 17 0 0 0 0 0 0 0 0 0 0 0 0 0 0
29 49 47 49 25 16 18 15 25 12 1 2 5 8 4 2 1 3 1 1 1 1 2 0 4 3 0 6 7 2 0 0 0 0 0 4 0 0 1 0 0 0 0 0
23 4 25 9 8 14 4 3 4 13 0 1 12 4 0 0 1 1 1 2 1 1 1 1 2 3 2 0 1 0 0 0 0 0 0 0 1 0 0 0 0 0 0 1

GFSNGP_con_mlcape_048.txt.gz
CAPE
0 2 3 12 11 24 1 0 6 204 172 43 49 35 233 2273 2114 2107 1918 2077 2870 3076 3311 2094 900 1784 1591 1353 830 254 202 781 998 920 949 673 536 470 322 211 93 31 3 1
0 0 0 6 11 9 0 5 0 53 103 21 0 0 81 1537 1665 1746 1808 2012 2729 2759 3005 2156 844 1419 1669 1416 994 368 478 768 1039 1048 1106 871 730 525 427 239 119 70 12 8
0 0 0 0 0 25 5 43 0 85 244 63 12 52 269 1707 1704 1683 1604 1477 1701 2579 2843 1960 1053 1409 1796 1420 1317 310 431 797 968 1053 1047 1124 923 502 446 280 128 54 5 0
17 36 0 2 0 0 0 82 415 505 359 328 255 1050 1772 1653 1596 1655 1674 1493 1650 2399 2517 2053 1464 1578 1731 1615 1518 1387 792 822 896 875 847 742 1105 559 444 333 155 106 51 0
112 4 0 12 5 9 20 42 623 388 151 516 852 1631 1822 1981 2341 2725 2720 2761 2763 2986 2637 2332 1794 2164 1989 1903 1804 1526 932 584 424 498 622 553 916 803 666 536 196 99 78 0
200 69 0 47 309 167 239 291 668 283 16 14 1336 1330 1939 2369 2613 2510 2258 2570 2494 2819 2714 2141 2242 2274 1826 1430 1104 1327 416 103 157 199 342 416 623 1030 795 452 180 106 61 14
44 116 121 450 84 166 241 667 114 99 52 459 1443 2347 2828 2487 2222 2073 2047 2323 2960 3011 2574 2464 2092 1674 1605 1125 931 471 131 0 0 54 153 242 160 431 635 565 301 102 60 6
162 65 112 1276 49 88 4 77 228 436 2252 2170 2139 2340 2629 2191 2052 1710 1710 1967 2268 2024 1984 1984 2237 1795 1683 1324 1023 730 562 17 101 230 226 215 237 170 393 417 298 113 25 1
577 630 628 1166 1586 1990 1347 1229 1017 1056 1600 1595 1811 2253 2613 2020 1670 1566 1600 1566 1511 1379 1424 1256 1397 1630 1909 1345 1207 919 525 428 321 210 174 203 313 752 610 415 147 77 1 0
24 1076 859 597 1688 859 1398 1261 1141 1157 1332 1462 1831 2141 2479 2193 1891 1602 1817 1793 1645 1402 1057 747 521 523 670 617 503 288 186 108 55 58 58 41 56 215 213 158 96 18 12 3
888 781 583 1455 1471 1619 1850 1683 968 1039 1303 1621 1702 1975 2225 2323 1991 1657 1469 1345 1261 1124 817 575 412 226 155 65 30 63 61 57 37 24 10 0 0 0 8 5 7 0 0 0
840 1142 925 1682 1761 1693 1617 1399 1232 1331 1536 1582 1780 1892 1774 1813 1862 1534 1405 1164 994 955 833 746 492 262 62 17 28 38 55 25 11 1 0 0 0 0 1 0 0 0 0 0
188 1270 1721 1726 1757 1567 1544 1443 1536 1602 1728 1724 1603 1481 1398 1433 1341 933 1058 1147 1077 946 724 647 621 567 331 19 1 1 8 42 12 2 0 0 0 1 0 0 0 0 0 0
115 812 1015 1082 1647 1453 1313 1078 912 699 609 659 502 403 964 628 864 727 681 590 504 429 429 454 459 458 587 328 62 2 0 0 0 4 1 0 0 1 1 0 0 0 0 0
15 99 551 1544 725 605 246 69 78 128 242 236 203 121 17 200 290 265 377 404 379 362 232 273 172 139 341 302 276 66 5 3 5 0 2 2 0 0 0 0 0 0 0 0
0 223 192 498 812 86 0 0 5 3 0 0 0 0 0 0 0 21 122 226 276 258 257 109 107 223 81 405 248 8 0 0 1 3 0 3 5 8 5 0 0 0 0 0
253 304 220 282 316 0 0 12 0 3 14 0 0 0 0 0 0 2 4 1 1 0 96 103 32 43 101 432 353 35 8 13 2 5 8 20 15 8 24 26 17 18 0 0
159 503 366 533 205 141 95 45 64 41 47 10 2 1 5 9 23 28 8 3 4 4 3 23 43 31 65 98 275 91 19 21 9 2 2 20 30 34 51 32 58 34 0 0
122 145 142 162 86 133 65 175 146 110 94 64 23 50 65 40 36 28 23 22 26 39 35 169 67 28 161 249 158 134 95 15 9 4 0 0 0 0 0 0 0 0 0 0
15 7 6 5 8 3 81 68 55 55 68 61 57 29 13 2 2 0 7 10 6 16 22 21 45 98 178 159 135 151 122 45 9 2 0 0 0 0 0 0 0 2 1 0
23 14 11 17 15 3 21 26 56 67 65 41 30 19 13 0 0 0 0 6 13 44 1 0 0 32 105 114 131 202 121 92 69 13 0 0 0 0 0 0 0 0 9 0
38 21 30 17 22 36 49 13 27 19 0 0 0 0 0 2 5 6 4 2 0 2 0 0 2 0 0 0 234 255 199 141 131 130 6 0 0 0 0 0 0 0 0 0
67 47 36 31 32 11 17 43 1 0 5 5 3 4 7 5 1 3 5 2 1 1 0 2 1 0 0 0 178 249 251 303 245 177 72 0 0 0 0 0 0 0 0 0
19 37 33 84 62 24 17 22 17 8 13 6 1 2 1 1 1 2 0 0 0 0 0 0 1 0 0 0 52 78 93 280 197 35 56 0 0 0 0 0 0 0 0 0
85 106 196 126 32 24 33 38 28 10 4 5 2 4 0 0 1 1 1 1 0 1 2 6 0 0 2 6 16 2 0 4 0 0 0 0 0 0 0 0 0 0 0 0
72 127 127 73 5 10 7 20 23 9 6 2 6 5 0 0 1 1 1 1 1 0 1 2 0 1 1 1 0 0 0 0 0 0 0 0 0 0 0 0 0 0 0 0
102 1 56 18 23 4 0 1 21 5 12 5 8 10 4 1 1 3 0 1 1 1 1 0 1 2 1 0 0 1 1 0 0 0 0 0 0 0 0 0 0 0 4 7